• en Suisse
  • Liste des pays
  • À 7 jours
  • Température de l'eau
  • Carte satellitaire
  • Carte météo
  • Widgets météo
  • user-avatar
    Se connecter

    Météo par heure à Auckland

    Ce jour, 18 Octobre, Jeudi

    Heure Température Précipitation Vent Pression Humidité
    00:00 +11°C° 0 mm 7 m/s 766 mmHg 82%
    01:00 +11°C° 0 mm 7 m/s 766 mmHg 82%
    02:00 +11°C° 0 mm 7 m/s 766 mmHg 81%
    03:00 +11°C° 0 mm 6 m/s 766 mmHg 81%
    04:00 +11°C° 0 mm 6 m/s 766 mmHg 81%
    05:00 +13°C° 0 mm 6 m/s 766 mmHg 82%
    06:00 +12°C° 0 mm 7 m/s 766 mmHg 81%
    07:00 +12°C° 0 mm 7 m/s 766 mmHg 78%
    08:00 +14°C° 0 mm 6 m/s 766 mmHg 76%
    09:00 +15°C° 0 mm 6 m/s 767 mmHg 73%
    10:00 +15°C° 0.1 mm 6 m/s 767 mmHg 71%
    11:00 +16°C° 0.1 mm 6 m/s 766 mmHg 69%
    12:00 +15°C° 0 mm 6 m/s 767 mmHg 70%
    13:00 +16°C° 0 mm 6 m/s 766 mmHg 66%
    14:00 +17°C° 0 mm 6 m/s 766 mmHg 63%
    15:00 +19°C° 0 mm 5 m/s 766 mmHg 59%
    16:00 +17°C° 0 mm 5 m/s 766 mmHg 63%
    17:00 +17°C° 0 mm 4 m/s 766 mmHg 68%
    18:00 +15°C° 0 mm 2 m/s 767 mmHg 74%
    19:00 +14°C° 0 mm 2 m/s 767 mmHg 80%
    20:00 +13°C° 0 mm 1 m/s 768 mmHg 86%
    21:00 +11°C° 0 mm 1 m/s 769 mmHg 93%
    22:00 +11°C° 0 mm 1 m/s 769 mmHg 93%
    23:00 +11°C° 0 mm 1 m/s 769 mmHg 94%

    Demain, 19 Octobre, Vendredi

    Heure Température Précipitation Vent Pression Humidité
    00:00 +11°C° 0 mm 1 m/s 770 mmHg 95%
    01:00 +10°C° 0 mm 2 m/s 770 mmHg 95%
    02:00 +10°C° 0 mm 2 m/s 770 mmHg 95%
    03:00 +10°C° 0 mm 3 m/s 770 mmHg 96%
    04:00 +10°C° 0 mm 3 m/s 771 mmHg 95%
    05:00 +10°C° 0 mm 4 m/s 771 mmHg 95%
    06:00 +11°C° 0 mm 4 m/s 771 mmHg 95%
    07:00 +13°C° 0 mm 4 m/s 771 mmHg 85%
    08:00 +15°C° 0 mm 4 m/s 771 mmHg 74%
    09:00 +18°C° 0 mm 4 m/s 772 mmHg 64%
    10:00 +20°C° 0 mm 3 m/s 772 mmHg 58%
    11:00 +21°C° 0 mm 3 m/s 772 mmHg 52%
    12:00 +24°C° 0 mm 2 m/s 772 mmHg 46%
    13:00 +23°C° 0 mm 2 m/s 771 mmHg 46%
    14:00 +21°C° 0 mm 2 m/s 771 mmHg 47%
    15:00 +21°C° 0 mm 3 m/s 771 mmHg 48%
    16:00 +19°C° 0 mm 2 m/s 771 mmHg 55%
    17:00 +18°C° 0 mm 2 m/s 771 mmHg 61%
    18:00 +17°C° 0 mm 2 m/s 771 mmHg 68%
    19:00 +15°C° 0 mm 2 m/s 771 mmHg 76%
    20:00 +13°C° 0 mm 3 m/s 771 mmHg 85%
    21:00 +11°C° 0 mm 3 m/s 771 mmHg 93%
    22:00 +11°C° 0 mm 3 m/s 772 mmHg 95%
    23:00 +11°C° 0 mm 3 m/s 772 mmHg 96%

    Après-demain, 20 Octobre, Samedi

    Heure Température Précipitation Vent Pression Humidité
    00:00 +11°C° 0 mm 3 m/s 772 mmHg 97%
    01:00 +11°C° 0 mm 3 m/s 771 mmHg 97%
    02:00 +12°C° 0 mm 2 m/s 771 mmHg 98%
    03:00 +10°C° 0 mm 2 m/s 770 mmHg 98%
    04:00 +10°C° 0 mm 2 m/s 771 mmHg 98%
    05:00 +12°C° 0 mm 2 m/s 771 mmHg 98%
    06:00 +12°C° 0 mm 2 m/s 771 mmHg 99%
    07:00 +14°C° 0 mm 2 m/s 771 mmHg 89%
    08:00 +17°C° 0 mm 2 m/s 771 mmHg 79%
    09:00 +19°C° 0 mm 2 m/s 771 mmHg 69%
    10:00 +20°C° 0 mm 3 m/s 771 mmHg 63%
    11:00 +21°C° 0 mm 3 m/s 771 mmHg 57%
    12:00 +24°C° 0 mm 3 m/s 771 mmHg 51%
    13:00 +22°C° 0 mm 3 m/s 770 mmHg 52%
    14:00 +22°C° 0 mm 3 m/s 770 mmHg 53%
    15:00 +22°C° 0 mm 3 m/s 769 mmHg 53%
    16:00 +21°C° 0 mm 3 m/s 769 mmHg 59%
    17:00 +19°C° 0 mm 2 m/s 769 mmHg 64%
    18:00 +18°C° 0 mm 2 m/s 769 mmHg 70%
    19:00 +18°C° 0 mm 1 m/s 769 mmHg 77%
    20:00 +15°C° 0 mm 1 m/s 770 mmHg 85%
    21:00 +12°C° 0 mm 0 m/s 770 mmHg 92%
    22:00 +13°C° 0 mm 1 m/s 770 mmHg 92%
    23:00 +13°C° 0 mm 1 m/s 770 mmHg 92%

    21 Octobre, Dimanche

    Heure Température Précipitation Vent Pression Humidité
    00:00 +13°C° 0 mm 1 m/s 770 mmHg 92%
    01:00 +13°C° 0 mm 1 m/s 770 mmHg 93%
    02:00 +12°C° 0 mm 1 m/s 769 mmHg 95%
    03:00 +12°C° 0 mm 1 m/s 769 mmHg 97%
    04:00 +12°C° 0 mm 1 m/s 769 mmHg 96%
    05:00 +12°C° 0 mm 1 m/s 769 mmHg 96%
    06:00 +12°C° 0 mm 1 m/s 769 mmHg 96%
    07:00 +15°C° 0 mm 1 m/s 769 mmHg 85%
    08:00 +18°C° 0 mm 1 m/s 770 mmHg 74%
    09:00 +19°C° 0 mm 2 m/s 770 mmHg 62%
    10:00 +20°C° 0 mm 2 m/s 770 mmHg 60%
    11:00 +20°C° 0 mm 2 m/s 769 mmHg 57%
    12:00 +21°C° 0 mm 3 m/s 769 mmHg 55%
    13:00 +21°C° 0 mm 3 m/s 769 mmHg 54%
    14:00 +21°C° 0 mm 3 m/s 769 mmHg 54%
    15:00 +21°C° 0 mm 3 m/s 768 mmHg 53%
    16:00 +20°C° 0 mm 3 m/s 768 mmHg 59%
    17:00 +19°C° 0 mm 3 m/s 768 mmHg 64%
    18:00 +18°C° 0 mm 2 m/s 768 mmHg 70%
    19:00 +16°C° 0 mm 2 m/s 769 mmHg 78%
    20:00 +15°C° 0 mm 2 m/s 769 mmHg 87%
    21:00 +13°C° 0 mm 2 m/s 770 mmHg 95%
    22:00 +13°C° 0 mm 2 m/s 770 mmHg 96%
    23:00 +13°C° 0 mm 2 m/s 770 mmHg 97%

    22 Octobre, Lundi

    Heure Température Précipitation Vent Pression Humidité
    00:00 +13°C° 0 mm 2 m/s 770 mmHg 98%
    01:00 +12°C° 0 mm 2 m/s 769 mmHg 98%
    02:00 +12°C° 0 mm 2 m/s 769 mmHg 98%
    03:00 +12°C° 0 mm 2 m/s 769 mmHg 98%
    04:00 +12°C° 0 mm 2 m/s 769 mmHg 98%
    05:00 +12°C° 0 mm 2 m/s 769 mmHg 98%
    06:00 +12°C° 0 mm 2 m/s 770 mmHg 98%
    07:00 +14°C° 0 mm 2 m/s 770 mmHg 89%
    08:00 +16°C° 0 mm 2 m/s 770 mmHg 79%
    09:00 +19°C° 0 mm 1 m/s 770 mmHg 70%
    10:00 +21°C° 0 mm 2 m/s 770 mmHg 61%
    11:00 +24°C° 0 mm 2 m/s 770 mmHg 53%
    12:00 +27°C° 0 mm 2 m/s 769 mmHg 44%
    13:00 +26°C° 0 mm 2 m/s 769 mmHg 48%
    14:00 +25°C° 0 mm 3 m/s 769 mmHg 52%
    15:00 +24°C° 0 mm 3 m/s 769 mmHg 56%
    16:00 +22°C° 0 mm 3 m/s 769 mmHg 60%
    17:00 +20°C° 0 mm 2 m/s 769 mmHg 64%
    18:00 +19°C° 0 mm 2 m/s 770 mmHg 69%
    19:00 +17°C° 0 mm 2 m/s 770 mmHg 76%
    20:00 +16°C° 0 mm 2 m/s 771 mmHg 84%
    21:00 +14°C° 0 mm 2 m/s 771 mmHg 92%
    22:00 +14°C° 0 mm 2 m/s 771 mmHg 92%
    23:00 +13°C° 0 mm 2 m/s 771 mmHg 93%

    23 Octobre, Mardi

    Heure Température Précipitation Vent Pression Humidité
    00:00 +13°C° 0 mm 2 m/s 771 mmHg 94%
    01:00 +13°C° 0 mm 2 m/s 771 mmHg 95%
    02:00 +13°C° 0 mm 2 m/s 771 mmHg 95%
    03:00 +13°C° 0 mm 2 m/s 770 mmHg 95%
    04:00 +13°C° 0 mm 2 m/s 771 mmHg 95%
    05:00 +13°C° 0 mm 2 m/s 771 mmHg 94%
    06:00 +13°C° 0 mm 2 m/s 771 mmHg 93%
    07:00 +15°C° 0 mm 2 m/s 771 mmHg 81%
    08:00 +18°C° 0 mm 2 m/s 771 mmHg 69%
    09:00 +21°C° 0 mm 2 m/s 771 mmHg 57%
    10:00 +23°C° 0 mm 2 m/s 771 mmHg 54%
    11:00 +25°C° 0 mm 2 m/s 771 mmHg 50%
    12:00 +26°C° 0 mm 1 m/s 770 mmHg 46%
    13:00 +25°C° 0 mm 2 m/s 770 mmHg 49%
    14:00 +24°C° 0 mm 2 m/s 770 mmHg 51%
    15:00 +24°C° 0 mm 2 m/s 769 mmHg 54%
    16:00 +23°C° 0 mm 2 m/s 769 mmHg 59%
    17:00 +21°C° 0 mm 2 m/s 769 mmHg 63%
    18:00 +20°C° 0 mm 2 m/s 769 mmHg 68%
    19:00 +18°C° 0 mm 2 m/s 770 mmHg 76%
    20:00 +16°C° 0 mm 1 m/s 770 mmHg 84%
    21:00 +15°C° 0 mm 1 m/s 770 mmHg 92%
    22:00 +14°C° 0 mm 1 m/s 770 mmHg 93%
    23:00 +14°C° 0 mm 1 m/s 770 mmHg 94%
    Voir plus